Location: Bothwell
(42.3833°S, 147.0000°E)
Time: 22:33:15
(UTC+10:00)

CUTE 1.7 + AOD 2 - Pass Details

Date: 04 February 2023
Orbit: 584 x 601 km, 97.7° (Epoch: 02 April)

Event Time Altitude Azimuth Distance (km) Brightness Sun altitude
Exits shadow 03:18:55 21° 68° (ENE) 1,367 ? -25.6°
Maximum altitude 03:20:49 30° 111° (ESE) 1,091 ? -25.5°
Drops below altitude 10° 03:24:30 10° 171° (S) 1,950 ? -25.1°
Sets 03:26:52 0° 182° (S) 2,863 ? -24.9°
